Location: *
(43.7000°S, 168.7000°W)
Time: 14:28:22
(UTC+00:00)

Nadezhda 4 Rocket - Pass Details

Date: 07 July 2020
Orbit: 951 x 991 km, 82.9° (Epoch: 03 August)

Event Time Altitude Azimuth Distance (km) Brightness Sun altitude
Rises 16:25:45 0° 356° (N) 3,687 7.1 -24.9°
Reaches altitude 10° 16:28:15 10° 356° (N) 2,743 6.4 -24.4°
Maximum altitude 16:34:34 85° 84° (E) 998 4.0 -23.3°
Drops below altitude 10° 16:40:54 10° 171° (S) 2,749 6.3 -22.2°
Sets 16:43:25 0° 171° (S) 3,697 7.0 -21.7°
